Regional Weather Roundup
Issued by NWS Cleveland, OH

Home | Current Version | Previous Version | Graphics & Text | Print | Product List | Glossary On
Versions: 1 2 3 4 5 6 7 8 9 10 11 12 13 14 15 16 17 18 19 20 21 22 23 24 25 26 27 28 29 30 31 32 33 34 35 36 37 38 39 40 41 42 43 44 45 46 47 48 49 50
000
ASUS41 KCLE 122000
RWRCLE
OHIO REGIONAL WEATHER ROUNDUP
NATIONAL WEATHER SERVICE WILMINGTON, OH
400 PM EDT SAT JUL 12 2014

NOTE: "FAIR" INDICATES FEW OR NO CLOUDS BELOW 12,000 FEET WITH NO
SIGNIFICANT WEATHER AND/OR OBSTRUCTIONS TO VISIBILITY.

OHZ001>008-015>018-024>027-034-035-043-044-122100-
   NORTHWEST OHIO

CITY           SKY/WX    TMP DP  RH WIND       PRES   REMARKS
DEFIANCE       CLOUDY    83  67  58 SW10      30.04F
FINDLAY        PTSUNNY   84  67  56 SW8       30.08F
TOLEDO EXPRESS MOSUNNY   85  66  53 SW9       30.05F
TOLEDO METCALF PTSUNNY   85  63  47 S15       30.07F
LIMA           PTSUNNY   84  68  58 SW14      30.09F
$$

OHZ009>014-019>023-028>033-038-089-122100-
   NORTHEAST OHIO

CITY           SKY/WX    TMP DP  RH WIND       PRES   REMARKS
CLE-HOPKINS    PTSUNNY   84  63  49 SW14      30.12F
CLE-LAKEFRONT  PTSUNNY   81  67  62 N6        30.08F
CUY CO. ARPT   PTSUNNY   84  64  51 NW6       30.12F
LORAIN-ELYRIA  PTSUNNY   88  61  40 SW14      30.11F
ASHTABULA      MOSUNNY   81  59  47 SW8       30.13F
AKRON-CANTON   PTSUNNY   85  61  44 S13       30.14F
WOOSTER        NOT AVBL
MANSFIELD      MOSUNNY   82  60  47 SW13      30.15F
YOUNGSTOWN     CLOUDY    82  61  48 SW9       30.15F
$$

OHZ042-051>053-060>062-070>072-077>081-122100-
  SOUTHWEST OHIO

CITY           SKY/WX    TMP DP  RH WIND       PRES   REMARKS
CINC-COVINGTON CLOUDY    83  64  52 W9        30.15F
CINC-LUNKEN    CLOUDY    85  66  53 W12       30.13F
HAMILTON       CLOUDY    82  70  66 VRB7      30.14F
DAYTON         NOT AVBL
WRIGHT-PAT AFB NOT AVBL
DAYTON GENERAL CLOUDY    83  66  56 W8        30.14F
WILMINGTON     CLOUDY    82  63  52 SW10      30.15F
$$

OHZ036-037-039>041-045>050-054>059-063>069-073>076-082>088-122100-
  CENTRAL AND SOUTHEAST OHIO

CITY           SKY/WX    TMP DP  RH WIND       PRES   REMARKS
COLUMBUS       CLOUDY    86  60  41 W10       30.13F
OSU AIRPORT    MOSUNNY   83  63  50 W7        30.14F
BOLTON FIELD   SUNNY     82  64  54 W6        30.15F
RICKENBACK AFB NOT AVBL
NEWARK         MOSUNNY   84  62  47 S10       30.13F
MARION         PTSUNNY   84  61  45 SW10      30.13F
LANCASTER      PTSUNNY   84  63  49 W10       30.15F
ZANESVILLE     PTSUNNY   84  62  47 SW7       30.14F
NEW PHILLY     PTSUNNY   85  65  51 VRB6      30.14F
$$



USA.gov is the U.S. government's official web portal to all federal, state and local government web resources and services.